Other Public Products
Issued by NWS Grand Forks, ND

Home | Current Version | Previous Version | Graphics & Text | Print | Product List | Glossary On
Versions: 1 2 3 4 5 6 7 8 9 10 11 12 13 14 15 16 17 18 19 20 21 22 23 24 25 26 27 28 29 30 31 32 33 34 35 36 37 38 39 40 41 42 43 44 45 46 47 48 49 50
262
FPUS83 KFGF 061410
OPUFGF
PRAIRIE TO PINES WEATHER ROUNDUP
NATIONAL WEATHER SERVICE EASTERN NORTH DAKOTA/GRAND FORKS ND
800 AM CST SAT FEB 06 2016

 **SATELLITE DATA USED TO AUGMENT SKY COVER AT AUTOMATED STATIONS**
 *****  WEATHER ACROSS EASTERN NORTH DAKOTA  *****

CITY           SKY/WX    TMP DP  RH WIND       PRES   REMARKS
GRAND FORKS    CLOUDY    24  18  77 S12       29.83F WCI  13
GRAND FORKS AF CLOUDY    22  18  86 S10       29.81F WCI  11
GRAND CITY NWS   N/A     21 N/A N/A S10         N/A  WCI  10
BUXTON           N/A     22  22  98 S12         N/A  WCI  11
DEVILS LAKE    CLOUDY    30  24  78 SW9       29.76F WCI  22
FARGO          CLOUDY    24  19  81 S12       29.88F WCI  13
WAHPETON ARPT  CLOUDY    23  21  93 S6        29.93F WCI  16
$$

 *****  WEATHER ACROSS CENTRAL AND WESTERN NORTH DAKOTA  *****

CITY           SKY/WX    TMP DP  RH WIND       PRES   REMARKS
JAMESTOWN      CLOUDY    33  23  66 SW14      29.81F WCI  23
BISMARCK       CLOUDY    31  23  72 SW3       29.84F
MINOT          CLOUDY    40  25  55 SW16      29.71F
MINOT AFB      CLOUDY    39  29  66 W14       29.69F
GARRISON         N/A     34  26  72 SW12      29.75F
WILLISTON      CLOUDY    38  27  64 S9        29.75F
DICKINSON      CLOUDY    34  21  59 W14       29.81F WCI  25
HETTINGER      PTCLDY    33  20  58 W10       29.90F WCI  25
$$

 *****  OTHER OBSERVATIONS NORTHEAST NORTH DAKOTA  *****

CITY           SKY/WX    TMP DP  RH WIND       PRES   REMARKS
WALHALLA       FAIR      25  25 100 S6        29.77F WCI  18
LANGDON        FAIR      25  21  86 S15       29.74F WCI  12
CAVALIER       FAIR      23  19  86 S10       29.79F WCI  12
GRAFTON        FAIR      21  21 100 S13       29.83F WCI   9
CANDO          NOT AVBL
FORT TOTTEN    NOT AVBL
ROLLA          CLOUDY    27  25  93 SW8       29.71F WCI  18
RUGBY          FAIR      28  27  93 SW8       29.72F WCI  20
 ***** THE ABOVE OBSERVATIONS ARE NON NWS ARE NOT QUALITY
        CONTROLLED AND MAY MIS-REPORT RAIN FOR SNOW...
$$

 *****  OTHER OBSERVATIONS SOUTHEAST NORTH DAKOTA *****

CITY           SKY/WX    TMP DP  RH WIND       PRES   REMARKS
COOPERSTOWN    NOT AVBL
VALLEY CITY    CLOUDY    28  27  93 S13       29.85F WCI  18
OAKES          CLOUDY    27  25  93 S15       29.89F WCI  15
GWINNER        PTSUNNY   28  27  93 SW17      29.89F WCI  16
SHEYENNE NWR     N/A     27  22  82 SW12      29.95S WCI  17
BUFFALO          N/A     26  21  80 SW10        N/A  WCI  16
WYNDMERE         N/A     28  23  80 S5          N/A  WCI  23
 ***** THE ABOVE OBSERVATIONS ARE NON NWS ARE NOT QUALITY
       CONTROLLED AND MAY MIS-REPORT RAIN FOR SNOW...
$$

  *****  WEATHER ACROSS NORTHERN MINNESOTA  *****

CITY           SKY/WX    TMP DP  RH WIND       PRES   REMARKS
FLAG ISLAND    CLOUDY    18  16  93 SE3       29.88F
WARROAD        PTCLDY    18  14  86 SE3       29.87F
ROSEAU         CLOUDY    19  16  86 SE8       29.86F WCI   9
HALLOCK        CLOUDY    21  19  93 SE14      29.81F WCI   8
THF RVR FALLS  CLOUDY    21  18  86 S8        29.86F WCI  12
HALSTAD        NOT AVBL
FOSSTON        CLOUDY    21  18  86 S12       29.87F WCI   9
BAUDETTE       CLOUDY    19  14  81 SE8       29.88F WCI   9
WASKISH        CLOUDY    21  18  86 S7        29.90F WCI  13
CROOKSTON      CLOUDY    25  21  86 S16       29.86F WCI  12
$$
  *****  WEATHER ACROSS CENTRAL AND WEST MINNESOTA  *****

CITY           SKY/WX    TMP DP  RH WIND       PRES   REMARKS
BEMIDJI        CLOUDY    20  19  93 SE6       29.90F WCI  13
PARK RAPIDS    CLOUDY    21  18  88 SE8       29.91F WCI  11
WADENA         CLOUDY    21  19  93 S7        29.94F WCI  13
DETROIT LAKES  CLOUDY    23  23 100 S9        29.91F WCI  13
MOORHEAD       CLOUDY    23  19  86 S15       29.90F WCI  10
FERGUS FALLS   CLOUDY    21  19  93 S10       29.97F WCI  10
ELBOW LAKE     FAIR      20  19  96 S13       29.96F WCI   8
MORRIS MN      CLOUDY    19  19 100 SE10      29.97F WCI   8
STAPLES        PTCLDY    21  19  93 S9        29.96F WCI  11
WHEATON        CLOUDY    28  25  86 S13       29.96F WCI  18
$$
  *****  WEATHER ELSEWHERE ACROSS MINNESOTA  *****

CITY           SKY/WX    TMP DP  RH WIND       PRES   REMARKS
DULUTH         CLOUDY    20  16  84 SW9       29.99F WCI   9
INTRNTL FALLS  CLOUDY    18  15  88 SE5       29.93F FOG     WCI  11
ELY            CLOUDY    16  12  86 CALM      29.96F
CLOQUET        CLOUDY    19  18  93 SW9       30.01S WCI   9
BRAINERD       CLOUDY    22  20  92 S9        29.98F FOG     WCI  12
HIBBING        CLOUDY    16  15  96 VRB3      29.97F
ALEXANDRIA     FLURRIES  23  19  85 S12       29.97F WCI  12
SAINT CLOUD    CLOUDY    22  21  96 S9        30.04F FOG     WCI  12
MINNEAPOLIS    CLOUDY    26  22  84 S7        30.12S WCI  18
$$

  *****  WEATHER ACROSS SOUTH DAKOTA  *****

CITY           SKY/WX    TMP DP  RH WIND       PRES   REMARKS
SIOUX FALLS    CLOUDY    20  17  88 S8        30.09F WCI  10
BROOKINGS      CLOUDY    21  19  92 S8        30.03F WCI  11
WATERTOWN      CLOUDY    22  18  85 S9        29.98F WCI  12
HURON          CLOUDY    24  19  81 S10       30.02F WCI  14
SISSETON         N/A     32  23  69 W20       29.92F WCI  20
ABERDEEN       CLOUDY    26  21  81 S12       29.96F WCI  16
MITCHELL       CLOUDY    26  21  81 SW10      30.08F WCI  16
PIERRE         CLOUDY    29  20  69 SW16      29.99F WCI  17
MOBRIDGE       CLOUDY    29  23  78 SE9       29.90F WCI  20
RAPID CITY     CLOUDY    26  17  68 SW3       30.00F
$$

  *****  SOME WEATHER IN NEARBY STATES *****

CITY           SKY/WX    TMP DP  RH WIND       PRES   REMARKS
GLASGOW MT     CLOUDY    40  26  57 SW12      29.75F
GREAT FALLS MT CLEAR     42  21  43 SW31G45   29.84F
CHEYENNE WY    CLOUDY    31  15  52 W26G38    30.13S WCI  17
SCOTTSBLUFF NE CLOUDY    24  16  71 CALM      30.16S
OMAHA NE       FOG       21  21 100 S5        30.25S VSB 1/2 WCI  15
DES MOINES IA  CLOUDY    29  26  89 W6        30.24S FOG     WCI  23
DAVENPORT IA   CLEAR     28  22  78 SW5       30.26S WCI  23
CHICAGO IL     PTCLDY    26  22  84 SW10      30.26S WCI  16
EAU CLAIRE WI  CLOUDY    25  20  81 SW8       30.12F WCI  16
LA CROSSE WI   CLOUDY    28  24  85 SW8       30.18S WCI  20
$$

  *****  SOME NATIONAL WEATHER *****

CITY           SKY/WX    TMP DP  RH WIND       PRES   REMARKS
LA GUARDIA NY  CLOUDY    35  17  47 W5        30.43R
RALEIGH NC     PTSUNNY   34  22  61 CALM      30.46R
ATLANTA GA     PTSUNNY   37  20  50 E12       30.38R
NEW ORLEANS LA PTSUNNY   48  32  53 E7        30.31F
OKLAHOMA CITY  MOCLDY    37  30  75 N12       30.34R
ALBUQUERQUE NM CLOUDY    24  12  60 N7        30.46F WCI  16
SALT LAKE CITY MOCLDY    24  18  77 SE10      30.52R WCI  14
LOS ANGELES CA CLEAR     54  25  32 N7        30.25S
BOISE ID       CLOUDY    33  27  78 S14       30.41S WCI  23
SEATTLE WA     MOCLDY    44  39  82 S15G23    30.39R
$$

*** WEATHER ACROSS MANITOBA...SASKATCHEWAN AND ONTARIO ***
                ***ONTARIO***

CITY           SKY/WX    TMP DP  RH WIND       PRES   REMARKS
GERALDTON      FLURRIES   3   0  85 N7        29.98R WCI  -9
THUNDER BAY    CLOUDY    19  14  79 NW3       30.02S
SIOUX LOOKOUT  FLURRIES   9   5  85 VRB2      29.95F
TORONTO        NOT AVBL
BIG TROUT LK   HAZE     -36 -44  67 SW2       30.11R VSB 3/4
PICKLE LAKE    PTCLDY   -15 -20  76 NE6       29.99S WCI -29
DRYDEN         CLOUDY    12   9  85 E5        29.92F WCI   4
KENORA         LGT SNOW  14  12  92 E8        29.87F WCI   3
$$
                *** MANITOBA***

CITY           SKY/WX    TMP DP  RH WIND       PRES   REMARKS
BRANDON        CLOUDY    23  19  86 E6        29.68F WCI  16
DAUPHIN        CLOUDY    21  19  93 SE8       29.65F WCI  12
ISLAND LAKE    PTCLDY   -24 -29  76 SE8       30.02  WCI -43
PILOT MOUND      N/A     23  21  93 S10         N/A  WCI  12
THE PAS        FLURRIES  10   7  85 E14G22    29.66F WCI  -5
THOMPSON       CRYSTALS -17 -24  70 E5        29.94F WCI -29
WINNIPEG       MOCLDY    21  18  86 SE13      29.81F WCI   9
LYNN LAKE      FLURRIES  -9 -15  77 SE14G22   29.72F WCI -31
CHURCHILL      CLEAR    -42 -49  66 SW8       30.16F WCI -65
$$
                ***SASKATCHEWAN***

CITY           SKY/WX    TMP DP  RH WIND       PRES   REMARKS
ESTEVAN        CLOUDY    36  28  75 SW14      29.65F
KINDERSLEY     MOCLDY    37  28  70 SW28G33   29.45S
LLOYDMINSTER   CLOUDY    37  28  70 W17G24    29.37F
PRINCE ALBERT  MOCLDY    19  18  93 E9        29.41F WCI   9
REGINA         MOCLDY    37  28  70 SW15      29.57F
YORKTON        CLOUDY    25  21  86 S12       29.55F WCI  14
N. BATTLEFORD  PTCLDY    34  27  75 SW8       29.41F   C1F1C2F2C3F3C4F4C5F5C6F6C7F7C8F8C9F9CaFaCbFbCcFcCdFdCe!



USA.gov is the U.S. government's official web portal to all federal, state and local government web resources and services.